Simultaneous Nadir Overpasses (SNOs) Predictions

Prediction of SNOs between NPP and TERRA Satellite Orbit:

Table of predicted SNOs for the next 14.0 days since TLE Epoch: 8/31/2012
Index Date (NPP) Time (NPP) Lat,Lon (NPP) SZA (NPP ) Date (TERRA) Time (TERRA) Lat,Lon (TERRA) SZA (TERRA ) Distance(km) Time Diff (sec)
1 09/01/2012 20:01:50 -68.28, 57.80 119.73 09/01/2012 20:02:37 -68.26, 57.84 119.76 2.94 47
2 09/01/2012 20:52:33 68.14,-134.71 60.14 09/01/2012 20:52:03 68.14,-134.65 60.14 2.23 30
3 09/01/2012 21:42:57 -67.10, 33.87 120.90 09/01/2012 21:41:49 -67.15, 31.85 120.83 87.24 68
4 09/04/2012 11:28:16 69.14, 5.11 62.12 09/04/2012 11:29:24 69.01, 7.01 61.96 76.94 68
5 09/04/2012 12:18:42 -68.21, 173.66 118.82 09/04/2012 12:19:07 -68.19, 173.63 118.85 3.17 25
6 09/04/2012 13:09:26 68.07, -18.85 61.05 09/04/2012 13:08:34 68.07, -18.86 61.05 0.69 52
7 09/07/2012 03:44:55 68.33, 121.96 62.29 09/07/2012 03:46:06 68.32, 122.03 62.27 3.34 71
8 09/07/2012 04:35:35 -68.16, -70.49 117.88 09/07/2012 04:35:37 -68.17, -70.52 117.87 1.60 2
9 09/07/2012 05:26:18 67.96, 97.06 61.94 09/07/2012 05:25:05 67.99, 96.92 61.97 6.33 73
10 09/09/2012 20:01:47 68.24,-122.14 63.20 09/09/2012 20:02:37 68.24,-122.19 63.19 2.26 50
11 09/09/2012 20:52:29 -68.16, 45.27 116.87 09/09/2012 20:52:07 -68.14, 45.33 116.89 3.12 22
12 09/09/2012 21:42:56 67.11,-146.14 62.09 09/09/2012 21:41:49 67.17,-148.12 62.17 86.01 67
13 09/12/2012 12:18:40 68.20, -6.32
